| time (UTC) | temp C | wind direction | speed KPH | gust KPH | rain 1hr cm | rain 24hr cm | rain mn cm | humidity % | barometer mb |
| 20260509011533 | 19 | 284 | 1.6 | 9.7 | 0.00 | 0.00 | 0.00 | 55 | 1020.8 |
| 20260509010030 | 19 | 313 | 0.0 | 4.8 | 0.00 | 0.00 | 0.00 | 56 | 1021.0 |
| 20260509004532 | 18 | 272 | 3.2 | 8.0 | 0.00 | 0.00 | 0.00 | 55 | 1021.1 |
| 20260509003032 | 18 | 278 | 3.2 | 12.9 | 0.00 | 0.00 | 0.00 | 54 | 1021.1 |
| 20260509001528 | 19 | 276 | 1.6 | 12.9 | 0.00 | 0.00 | 0.00 | 53 | 1021.1 |
| 20260509000027 | 18 | 226 | 0.0 | 12.9 | 0.00 | 0.00 | 0.00 | 53 | 1021.1 |
| 20260508234527 | 19 | 274 | 4.8 | 9.7 | 0.00 | 0.00 | 0.00 | 51 | 1021.2 |
| 20260508233026 | 19 | 223 | 0.0 | 6.4 | 0.00 | 0.00 | 0.00 | 51 | 1021.3 |
| 20260508231525 | 18 | 292 | 1.6 | 8.0 | 0.00 | 0.00 | 0.00 | 53 | 1021.1 |
| 20260508230045 | 18 | 17 | 0.0 | 6.4 | 0.00 | 0.00 | 0.00 | 55 | 1021.3 |
| 20260508224551 | 19 | 287 | 3.2 | 9.7 | 0.00 | 0.00 | 0.00 | 53 | 1021.3 |
| 20260508223030 | 18 | 291 | 3.2 | 8.0 | 0.00 | 0.00 | 0.00 | 53 | 1021.4 |
| 20260508221520 | 18 | 148 | 3.2 | 8.0 | 0.00 | 0.00 | 0.00 | 54 | 1021.5 |
| 20260508220018 | 17 | 207 | 1.6 | 11.3 | 0.00 | 0.00 | 0.00 | 55 | 1021.6 |
| 20260508214517 | 17 | 202 | 1.6 | 11.3 | 0.00 | 0.00 | 0.00 | 54 | 1021.7 |
| 20260508213015 | 17 | 209 | 1.6 | 6.4 | 0.00 | 0.00 | 0.00 | 55 | 1021.6 |
| 20260508211514 | 17 | 254 | 4.8 | 12.9 | 0.00 | 0.00 | 0.00 | 54 | 1021.7 |
| 20260508210010 | 16 | 157 | 3.2 | 11.3 | 0.00 | 0.00 | 0.00 | 55 | 1021.6 |
| 20260508204516 | 16 | 243 | 3.2 | 14.5 | 0.00 | 0.00 | 0.00 | 54 | 1021.6 |
| 20260508203007 | 16 | 182 | 3.2 | 11.3 | 0.00 | 0.00 | 0.00 | 54 | 1021.7 |
| 20260508201504 | 15 | 301 | 1.6 | 14.5 | 0.00 | 0.00 | 0.00 | 54 | 1021.8 |
| 20260508200004 | 15 | 192 | 1.6 | 8.0 | 0.00 | 0.00 | 0.00 | 55 | 1021.9 |
| 20260508194601 | 15 | 174 | 4.8 | 12.9 | 0.00 | 0.00 | 0.00 | 58 | 1022.0 |
| 20260508193134 | 15 | 294 | 1.6 | 11.3 | 0.00 | 0.00 | 0.00 | 57 | 1022.1 |
| 20260508191558 | 14 | 117 | 1.6 | 9.7 | 0.00 | 0.00 | 0.00 | 59 | 1022.1 |
| 20260508190058 | 13 | 216 | 3.2 | 11.3 | 0.00 | 0.00 | 0.00 | 61 | 1022.2 |
| 20260508184622 | 13 | 300 | 3.2 | 8.0 | 0.00 | 0.00 | 0.00 | 62 | 1022.3 |
| 20260508183057 | 13 | 309 | 6.4 | 12.9 | 0.00 | 0.00 | 0.00 | 61 | 1022.2 |
| 20260508181550 | 12 | 271 | 3.2 | 11.3 | 0.00 | 0.00 | 0.00 | 63 | 1022.2 |
| 20260508180056 | 12 | 188 | 3.2 | 11.3 | 0.00 | 0.00 | 0.00 | 64 | 1022.1 |
| 20260508174603 | 11 | 229 | 3.2 | 8.0 | 0.00 | 0.00 | 0.00 | 65 | 1022.1 |
| 20260508173044 | 12 | 205 | 3.2 | 12.9 | 0.00 | 0.00 | 0.00 | 64 | 1021.9 |
| 20260508171604 | 11 | 192 | 1.6 | 8.0 | 0.00 | 0.00 | 0.00 | 66 | 1021.8 |
| 20260508170041 | 11 | 294 | 4.8 | 9.7 | 0.00 | 0.00 | 0.00 | 65 | 1021.7 |
| 20260508164539 | 10 | 270 | 3.2 | 9.7 | 0.00 | 0.00 | 0.00 | 65 | 1021.6 |
| 20260508163036 | 10 | 234 | 1.6 | 9.7 | 0.00 | 0.00 | 0.00 | 65 | 1021.5 |
| 20260508161540 | 10 | 222 | 1.6 | 11.3 | 0.00 | 0.00 | 0.00 | 63 | 1021.2 |
| 20260508160036 | 10 | 200 | 3.2 | 11.3 | 0.00 | 0.00 | 0.00 | 63 | 1020.9 |
| 20260508154532 | 10 | 127 | 3.2 | 11.3 | 0.00 | 0.00 | 0.00 | 64 | 1021.2 |
| 20260508153037 | 10 | 138 | 1.6 | 4.8 | 0.00 | 0.00 | 0.00 | 59 | 1021.0 |
| 20260508151539 | 8 | 211 | 0.0 | 3.2 | 0.00 | 0.00 | 0.00 | 53 | 1021.1 |
| 20260508150030 | 8 | 211 | 0.0 | 3.2 | 0.00 | 0.00 | 0.00 | 55 | 1021.1 |
| 20260508144529 | 8 | 210 | 0.0 | 3.2 | 0.00 | 0.00 | 0.00 | 59 | 1021.1 |
| 20260508143030 | 8 | 210 | 0.0 | 3.2 | 0.00 | 0.00 | 0.00 | 59 | 1021.3 |
| 20260508141528 | 8 | 209 | 0.0 | 3.2 | 0.00 | 0.00 | 0.00 | 58 | 1021.1 |
| 20260508140027 | 8 | 207 | 0.0 | 3.2 | 0.00 | 0.00 | 0.00 | 58 | 1021.1 |
| 20260508134523 | 8 | 207 | 0.0 | 6.4 | 0.00 | 0.00 | 0.00 | 58 | 1020.9 |
| 20260508133027 | 7 | 206 | 0.0 | 9.7 | 0.00 | 0.00 | 0.00 | 57 | 1020.6 |
| 20260508131519 | 7 | 232 | 0.0 | 6.4 | 0.00 | 0.00 | 0.00 | 58 | 1020.4 |
| 20260508130017 | 7 | 197 | 1.6 | 11.3 | 0.00 | 0.00 | 0.00 | 58 | 1020.1 |
| 20260508124522 | 7 | 191 | 1.6 | 8.0 | 0.00 | 0.00 | 0.00 | 58 | 1019.9 |
| 20260508123015 | 7 | 232 | 0.0 | 6.4 | 0.00 | 0.00 | 0.00 | 58 | 1019.6 |
| 20260508121512 | 7 | 216 | 0.0 | 6.4 | 0.00 | 0.00 | 0.00 | 58 | 1019.4 |
| 20260508120011 | 7 | 270 | 1.6 | 8.0 | 0.00 | 0.00 | 0.00 | 54 | 1019.3 |
| 20260508114510 | 7 | 238 | 0.0 | 1.6 | 0.00 | 0.00 | 0.00 | 50 | 1019.3 |
| 20260508113009 | 7 | 238 | 0.0 | 1.6 | 0.00 | 0.00 | 0.00 | 42 | 1019.1 |
| 20260508111505 | 7 | 238 | 0.0 | 1.6 | 0.00 | 0.00 | 0.00 | 35 | 1018.8 |
| 20260508110003 | 7 | 238 | 0.0 | 0.0 | 0.00 | 0.00 | 0.00 | 33 | 1018.5 |
| 20260508104601 | 7 | 238 | 0.0 | 0.0 | 0.00 | 0.00 | 0.00 | 34 | 1018.4 |
| 20260508103059 | 7 | 238 | 0.0 | 0.0 | 0.00 | 0.00 | 0.00 | 39 | 1018.3 |
| 20260508101557 | 7 | 238 | 0.0 | 0.0 | 0.00 | 0.00 | 0.00 | 41 | 1018.3 |
| 20260508100054 | 7 | 238 | 0.0 | 1.6 | 0.00 | 0.00 | 0.00 | 41 | 1018.0 |
| 20260508094602 | 7 | 238 | 0.0 | 0.0 | 0.00 | 0.00 | 0.00 | 44 | 1017.9 |
| 20260508093049 | 7 | 238 | 0.0 | 1.6 | 0.00 | 0.00 | 0.00 | 45 | 1017.5 |
| 20260508091609 | 7 | 238 | 0.0 | 0.0 | 0.00 | 0.00 | 0.00 | 48 | 1017.4 |
| 20260508090052 | 7 | 238 | 0.0 | 0.0 | 0.00 | 0.00 | 0.00 | 50 | 1017.5 |
| 20260508084543 | 8 | 238 | 0.0 | 0.0 | 0.00 | 0.00 | 0.00 | 53 | 1017.4 |
| 20260508083041 | 8 | 238 | 0.0 | 0.0 | 0.00 | 0.00 | 0.00 | 55 | 1017.3 |
| 20260508081545 | 8 | 238 | 0.0 | 0.0 | 0.00 | 0.00 | 0.00 | 58 | 1017.1 |
| 20260508080041 | 8 | 238 | 0.0 | 0.0 | 0.00 | 0.00 | 0.00 | 62 | 1017.0 |
| 20260508074531 | 9 | 238 | 0.0 | 0.0 | 0.00 | 0.00 | 0.00 | 63 | 1017.1 |
| 20260508073034 | 9 | 238 | 0.0 | 0.0 | 0.00 | 0.00 | 0.00 | 65 | 1017.0 |
| 20260508071531 | 10 | 238 | 0.0 | 1.6 | 0.00 | 0.00 | 0.00 | 66 | 1016.9 |
| 20260508070024 | 10 | 238 | 0.0 | 0.0 | 0.00 | 0.00 | 0.00 | 68 | 1016.8 |
| 20260508064531 | 10 | 238 | 0.0 | 0.0 | 0.00 | 0.00 | 0.00 | 69 | 1016.8 |
| 20260508063023 | 10 | 238 | 0.0 | 1.6 | 0.00 | 0.00 | 0.00 | 70 | 1016.7 |
| 20260508061521 | 11 | 238 | 0.0 | 0.0 | 0.00 | 0.00 | 0.00 | 71 | 1016.7 |
| 20260508060024 | 11 | 238 | 0.0 | 0.0 | 0.00 | 0.00 | 0.00 | 71 | 1016.7 |
| 20260508054521 | 11 | 238 | 0.0 | 0.0 | 0.00 | 0.00 | 0.00 | 71 | 1016.7 |
| 20260508053029 | 12 | 238 | 0.0 | 0.0 | 0.00 | 0.00 | 0.00 | 70 | 1016.7 |
| 20260508051520 | 12 | 238 | 0.0 | 0.0 | 0.00 | 0.00 | 0.00 | 68 | 1016.7 |
| 20260508050021 | 13 | 238 | 0.0 | 0.0 | 0.00 | 0.00 | 0.00 | 67 | 1016.6 |
| 20260508044516 | 13 | 238 | 0.0 | 4.8 | 0.00 | 0.00 | 0.00 | 65 | 1016.6 |
| 20260508043016 | 14 | 212 | 0.0 | 4.8 | 0.00 | 0.00 | 0.00 | 63 | 1016.6 |
| 20260508041519 | 15 | 274 | 1.6 | 6.4 | 0.00 | 0.00 | 0.00 | 62 | 1016.5 |
| 20260508040014 | 15 | 270 | 0.0 | 4.8 | 0.00 | 0.00 | 0.00 | 61 | 1016.3 |
| 20260508034522 | 16 | 265 | 0.0 | 4.8 | 0.00 | 0.00 | 0.00 | 61 | 1016.1 |
| 20260508033023 | 16 | 260 | 1.6 | 4.8 | 0.00 | 0.00 | 0.00 | 61 | 1015.8 |
| 20260508031516 | 17 | 88 | 0.0 | 4.8 | 0.00 | 0.00 | 0.00 | 59 | 1015.6 |
| 20260508030017 | 18 | 89 | 0.0 | 3.2 | 0.00 | 0.00 | 0.00 | 53 | 1015.5 |
| 20260508024520 | 18 | 89 | 0.0 | 3.2 | 0.00 | 0.00 | 0.00 | 50 | 1015.5 |
| 20260508023014 | 18 | 89 | 0.0 | 0.0 | 0.00 | 0.00 | 0.00 | 46 | 1015.6 |
| 20260508021511 | 19 | 89 | 0.0 | 1.6 | 0.00 | 0.00 | 0.00 | 48 | 1015.5 |
| 20260508020011 | 20 | 89 | 1.6 | 4.8 | 0.00 | 0.00 | 0.00 | 45 | 1015.5 |
| 20260508014513 | 20 | 90 | 0.0 | 4.8 | 0.00 | 0.00 | 0.00 | 44 | 1015.5 |
| 20260508013008 | 21 | 91 | 0.0 | 4.8 | 0.00 | 0.00 | 0.00 | 43 | 1015.7 |